Change the Weather History Date:

Sunday, February 17, 2013

  Actual Average Record
Temperature  
Mean Temperature 21 °F -  
Max Temperature 25 °F 27 °F 45 °F (2008)
Min Temperature 17 °F 17 °F 1 °F (2011)
Degree Days  
Heating Degree Days 44    
Moisture  
Dew Point 17 °F    
Average Humidity 81    
Maximum Humidity 86    
Minimum Humidity 50    
Precipitation  
Precipitation 0.00 in - - ()
Sea Level Pressure  
Sea Level Pressure 29.67 in    
Wind  
Wind Speed 11 mph (NNE)    
Max Wind Speed 16 mph    
Max Gust Speed 24 mph    
Visibility 4 miles    
Events Snow    
Averages and records for this station are not official NWS values.
T = Trace of Precipitation, MM = Missing Value Source: NWS Daily Summary

Daily Weather History Graph

Daily Weather History Graph

Search for Another Location

Airport or City:

Trip Planner

Search our weather history database for the weather conditions in past years. The results will help you decide how hot, cold, wet, or windy it might be!

Date:

Astronomy

Feb. 17, 2013 Rise Set
Actual Time 8:35 AM AKST 5:53 PM AKST
Civil Twilight 7:49 AM AKST 6:38 PM AKST
Nautical Twilight 6:59 AM AKST 7:29 PM AKST
Astronomical Twilight 6:09 AM AKST 8:19 PM AKST
Moon 10:18 AM AKST (2/17) 3:11 AM AKST (2/17)
Length of Visible Light 10h 49m
Length of Day
9h 18m
Waxing Crescent, 50% of the Moon is Illuminated
Feb 17
Waxing Crescent
Feb 25
Full
Mar 4
Last Quarter
Mar 11
New
Mar 19
First Quarter

Hourly Weather History & Observations

Time (AKST) Temp. Windchill Dew Point Humidity Pressure Visibility Wind Dir Wind Speed Gust Speed Precip Events Conditions
12:53 AM 19.0 °F 7.5 °F 14.0 °F 81% 29.79 in 2.5 mi North 10.4 mph - 0.00 in Snow Light Snow
1:05 AM 19.4 °F 7.2 °F 14.0 °F 80% 29.78 in 1.8 mi NNE 11.5 mph - 0.00 in Snow Light Snow
1:13 AM 19.4 °F 7.2 °F 15.8 °F 86% 29.78 in 2.0 mi NNE 11.5 mph - 0.00 in Snow Light Snow
1:46 AM 19.4 °F 9.5 °F 15.8 °F 86% 29.77 in 6.0 mi NNE 8.1 mph - 0.00 in Snow Light Snow
1:53 AM 19.0 °F 7.5 °F 15.1 °F 85% 29.78 in 6.0 mi NNE 10.4 mph - 0.00 in Snow Light Snow
2:14 AM 19.4 °F 8.6 °F 15.8 °F 86% 29.77 in 2.5 mi NNE 9.2 mph - 0.00 in Snow Light Snow
2:26 AM 19.4 °F 7.2 °F 15.8 °F 86% 29.76 in 3.0 mi North 11.5 mph - 0.00 in Snow Light Snow
2:36 AM 19.4 °F 8.6 °F 15.8 °F 86% 29.75 in 2.5 mi NNE 9.2 mph - 0.00 in Snow Light Snow
3:07 AM 19.4 °F 7.9 °F 15.8 °F 86% 29.74 in 3.0 mi North 10.4 mph - 0.00 in Snow Light Snow
3:53 AM 19.0 °F 6.8 °F 15.1 °F 85% 29.73 in 10.0 mi NNE 11.5 mph - 0.00 in   Overcast
4:53 AM 19.0 °F 6.8 °F 15.1 °F 85% 29.71 in 10.0 mi North 11.5 mph - 0.00 in   Overcast
5:53 AM 19.0 °F 8.2 °F 15.1 °F 85% 29.69 in 10.0 mi North 9.2 mph - N/A   Overcast
6:53 AM 19.9 °F 10.1 °F 15.1 °F 81% 29.67 in 7.0 mi North 8.1 mph - 0.00 in Snow Light Snow
7:53 AM 19.9 °F 11.1 °F 16.0 °F 85% 29.65 in 8.0 mi North 6.9 mph - 0.00 in Snow Light Snow
8:53 AM 19.9 °F 10.1 °F 16.0 °F 85% 29.64 in 10.0 mi NNE 8.1 mph - 0.00 in   Overcast
9:53 AM 19.9 °F 11.1 °F 16.0 °F 85% 29.63 in 10.0 mi NNE 6.9 mph - N/A   Overcast
10:53 AM 21.0 °F 10.6 °F 16.0 °F 81% 29.62 in 10.0 mi North 9.2 mph - N/A   Overcast
11:53 AM 21.9 °F 11.7 °F 17.1 °F 82% 29.61 in 10.0 mi North 9.2 mph - N/A   Overcast
12:53 PM 23.0 °F 11.7 °F 18.0 °F 81% 29.62 in 2.5 mi NNE 11.5 mph - 0.00 in Snow Light Snow
1:06 PM 23.0 °F 12.4 °F 17.6 °F 80% 29.60 in 1.5 mi NNE 10.4 mph - 0.00 in Snow Light Snow
1:53 PM 24.1 °F 14.4 °F 19.0 °F 81% 29.61 in 1.0 mi NNE 9.2 mph - 0.00 in Snow Light Snow
2:13 PM 24.8 °F 15.3 °F 19.4 °F 80% 29.59 in 1.5 mi NNE 9.2 mph - 0.00 in Snow Light Snow
2:53 PM 24.1 °F 13.7 °F 19.9 °F 84% 29.59 in 1.2 mi NNE 10.4 mph - 0.00 in Snow Light Snow
3:08 PM 24.8 °F 14.6 °F 19.4 °F 80% 29.59 in 2.5 mi North 10.4 mph - 0.00 in Snow Light Snow
3:15 PM 24.8 °F 14.6 °F 19.4 °F 80% 29.59 in 3.0 mi North 10.4 mph - 0.00 in Snow Light Snow
3:53 PM 25.0 °F 15.5 °F 19.9 °F 81% 29.59 in 2.0 mi North 9.2 mph - 0.00 in Snow Light Snow
4:10 PM 24.8 °F 12.9 °F 19.4 °F 80% 29.59 in 3.0 mi North 13.8 mph - 0.00 in Snow Light Snow
4:18 PM 24.8 °F 13.4 °F 19.4 °F 80% 29.59 in 1.8 mi NNE 12.7 mph - 0.00 in Snow Light Snow
4:37 PM 24.8 °F 12.4 °F 19.4 °F 80% 29.60 in 2.5 mi NNE 15.0 mph - 0.00 in Snow Light Snow
4:46 PM 24.8 °F 12.9 °F 19.4 °F 80% 29.60 in 3.0 mi North 13.8 mph - 0.00 in Snow Light Snow
4:53 PM 25.0 °F 13.1 °F 19.9 °F 81% 29.61 in 5.0 mi NNE 13.8 mph - 0.00 in Snow Light Snow
5:14 PM 24.8 °F 14.0 °F 21.2 °F 86% 29.61 in 2.0 mi NNE 11.5 mph - 0.00 in Snow Light Snow
5:22 PM 24.8 °F 12.9 °F 21.2 °F 86% 29.61 in 1.5 mi North 13.8 mph - 0.00 in Snow Light Snow
5:53 PM 25.0 °F 12.2 °F 21.0 °F 85% 29.62 in 1.5 mi North 16.1 mph - 0.00 in Snow Light Snow
6:03 PM 24.8 °F 14.0 °F 21.2 °F 86% 29.61 in 2.5 mi NNE 11.5 mph - 0.00 in Snow Light Snow
6:17 PM 24.8 °F 13.4 °F 21.2 °F 86% 29.61 in 3.0 mi North 12.7 mph - 0.00 in Snow Light Snow
6:34 PM 24.8 °F 14.0 °F 21.2 °F 86% 29.62 in 2.0 mi North 11.5 mph - 0.00 in Snow Light Snow
6:43 PM 24.8 °F 12.9 °F 21.2 °F 86% 29.62 in 1.5 mi North 13.8 mph - 0.00 in Snow Light Snow
6:53 PM 25.0 °F 13.6 °F 21.0 °F 85% 29.63 in 1.5 mi NNE 12.7 mph - 0.00 in Snow Light Snow
7:10 PM 24.8 °F 12.9 °F 21.2 °F 86% 29.63 in 1.2 mi NNE 13.8 mph - 0.00 in Snow Light Snow
7:33 PM 24.8 °F 12.9 °F 19.4 °F 80% 29.64 in 1.0 mi North 13.8 mph - 0.00 in Snow Light Snow
7:53 PM 23.0 °F 11.7 °F 18.0 °F 81% 29.65 in 1.5 mi NNE 11.5 mph - 0.00 in Snow Light Snow
8:53 PM 19.9 °F 6.7 °F 14.0 °F 78% 29.68 in 2.0 mi NNE 13.8 mph 23.0 mph 0.00 in Snow Light Snow
9:38 PM 19.4 °F 7.2 °F 12.2 °F 74% 29.71 in 3.0 mi NNE 11.5 mph - 0.00 in Snow Light Snow
9:53 PM 19.0 °F 5.6 °F 10.0 °F 68% 29.73 in 5.0 mi NNE 13.8 mph - 0.00 in Snow Light Snow
10:26 PM 19.4 °F 6.0 °F 6.8 °F 58% 29.74 in 9.0 mi NNE 13.8 mph - 0.00 in   Overcast
10:35 PM 17.6 °F 5.7 °F 6.8 °F 63% 29.75 in 10.0 mi NNE 10.4 mph - 0.00 in   Overcast
10:53 PM 18.0 °F 5.4 °F 5.0 °F 57% 29.77 in 10.0 mi NNE 11.5 mph 19.6 mph 0.00 in   Overcast
11:53 PM 17.1 °F 2.0 °F 1.0 °F 50% 29.80 in 10.0 mi NNE 16.1 mph 24.2 mph 0.00 in   Overcast